Regional Weather Roundup
Issued by NWS Goodland, KS

Home | Current Version | Previous Version | Graphics & Text | Print | Product List | Glossary On
Versions: 1 2 3 4 5 6 7 8 9 10 11 12 13 14 15 16 17 18 19 20 21 22 23 24 25 26 27 28 29 30 31 32 33 34 35 36 37 38 39 40 41 42 43 44 45 46 47 48 49 50
000
ASUS43 KGLD 041308
RWRGLD

GOODLAND FORECAST AREA HOURLY WEATHER ROUNDUP
NATIONAL WEATHER SERVICE GOODLAND KS
700 AM MDT FRI SEP 04 2015

...OFFICIAL OBSERVATIONS...

CITY           SKY/WX    TMP DP  RH WIND       PRES   REMARKS
GOODLAND KS    CLEAR     63  53  70 W8        29.89R
HILL CITY KS   CLEAR     72  59  63 VRB3      29.85R
IMPERIAL NEB   CLEAR     62  56  80 NW8       29.87R
MCCOOK NEB     PTCLDY    70  58  65 SW5       29.82R
AKRON CO       CLEAR     58  51  78 W7        29.95R
BURLINGTON CO  CLEAR     60  52  74 W8        29.94R
LIMON CO       PTCLDY    53  50  89 CALM      30.03R
$$

...UNOFFICIAL OBSERVATIONS...

CITY           SKY/WX    TMP DP  RH WIND       PRES   REMARKS
COLBY KS       CLEAR     66  61  82 W8        29.87R
GOVE KS          N/A     69  32  25 MISG        N/A
LENORA KS        N/A     71  32  23 MISG        N/A
NORTON KS      CLEAR     73  55  53 SE10G17   29.83R
KIT CARSON CO    N/A     59  51  74 MISG        N/A
YUMA CO          N/A     56  52  87 CALM        N/A
$$



USA.gov is the U.S. government's official web portal to all federal, state and local government web resources and services.